| time (UTC) | temp C | wind direction | speed KPH | gust KPH | rain 1hr cm | rain 24hr cm | rain mn cm | humidity % | barometer mb |
| 20260508080059 | 7 | 204 | 0.0 | 3.2 | 0.00 | 0.00 | 0.00 | 84 | 1011.8 |
| 20260508074547 | 8 | 299 | 1.6 | 4.8 | 0.00 | 0.00 | 0.00 | 83 | 1011.9 |
| 20260508073050 | 7 | 161 | 0.0 | 1.6 | 0.00 | 0.00 | 0.00 | 81 | 1011.9 |
| 20260508071544 | 9 | 129 | 1.6 | 6.4 | 0.00 | 0.00 | 0.00 | 81 | 1011.8 |
| 20260508070044 | 8 | 97 | 0.0 | 0.0 | 0.00 | 0.00 | 0.00 | 84 | 1011.7 |
| 20260508064601 | 8 | 126 | 0.0 | 1.6 | 0.00 | 0.03 | 0.00 | 82 | 1011.5 |
| 20260508063038 | 8 | 139 | 0.0 | 1.6 | 0.00 | 0.03 | 0.00 | 80 | 1011.5 |
| 20260508061532 | 10 | 158 | 0.0 | 3.2 | 0.00 | 0.03 | 0.00 | 77 | 1011.4 |
| 20260508060028 | 10 | 155 | 0.0 | 4.8 | 0.00 | 0.03 | 0.00 | 75 | 1011.3 |
| 20260508054527 | 11 | 103 | 0.0 | 3.2 | 0.00 | 0.08 | 0.03 | 73 | 1011.2 |
| 20260508053027 | 11 | 70 | 1.6 | 4.8 | 0.00 | 0.08 | 0.03 | 71 | 1011.3 |
| 20260508051527 | 12 | 151 | 3.2 | 9.7 | 0.00 | 0.08 | 0.03 | 65 | 1011.2 |
| 20260508050025 | 13 | 86 | 1.6 | 14.5 | 0.00 | 0.08 | 0.03 | 63 | 1011.1 |
| 20260508044524 | 13 | 111 | 6.4 | 12.9 | 0.00 | 0.08 | 0.03 | 63 | 1011.0 |
| 20260508043024 | 13 | 96 | 8.0 | 14.5 | 0.00 | 0.08 | 0.03 | 63 | 1010.7 |
| 20260508041522 | 13 | 105 | 8.0 | 16.1 | 0.00 | 0.08 | 0.03 | 61 | 1010.7 |
| 20260508040022 | 13 | 106 | 6.4 | 12.9 | 0.00 | 0.08 | 0.03 | 62 | 1010.6 |
| 20260508034521 | 15 | 97 | 6.4 | 16.1 | 0.00 | 0.08 | 0.03 | 60 | 1010.5 |
| 20260508033021 | 15 | 98 | 8.0 | 12.9 | 0.00 | 0.08 | 0.03 | 59 | 1010.3 |
| 20260508031520 | 16 | 117 | 3.2 | 9.7 | 0.00 | 0.08 | 0.03 | 58 | 1010.1 |
| 20260508030020 | 16 | 101 | 3.2 | 9.7 | 0.00 | 0.08 | 0.03 | 58 | 1009.9 |
| 20260508024525 | 17 | 193 | 0.0 | 0.0 | 0.00 | 0.08 | 0.03 | 55 | 1009.7 |
| 20260508023030 | 18 | 188 | 0.0 | 0.0 | 0.00 | 0.08 | 0.03 | 48 | 1009.6 |
| 20260508021518 | 21 | 201 | 0.0 | 4.8 | 0.00 | 0.08 | 0.03 | 40 | 1009.7 |
| 20260508020018 | 22 | 199 | 0.0 | 1.6 | 0.00 | 0.08 | 0.03 | 37 | 1009.7 |
| 20260508014519 | 22 | 300 | 0.0 | 4.8 | 0.00 | 0.08 | 0.03 | 37 | 1009.7 |
| 20260508013015 | 22 | 259 | 0.0 | 9.7 | 0.00 | 0.08 | 0.03 | 37 | 1009.6 |
| 20260508011515 | 23 | 214 | 1.6 | 16.1 | 0.00 | 0.08 | 0.03 | 34 | 1009.7 |
| 20260508010014 | 23 | 287 | 1.6 | 8.0 | 0.00 | 0.08 | 0.03 | 33 | 1009.6 |
| 20260508004513 | 23 | 223 | 0.0 | 9.7 | 0.00 | 0.08 | 0.03 | 31 | 1009.6 |
| 20260508003012 | 23 | 305 | 1.6 | 11.3 | 0.00 | 0.08 | 0.03 | 30 | 1009.7 |
| 20260508001511 | 23 | 243 | 4.8 | 14.5 | 0.00 | 0.08 | 0.03 | 28 | 1009.6 |
| 20260508000011 | 24 | 285 | 3.2 | 8.0 | 0.00 | 0.08 | 0.03 | 29 | 1009.6 |
| 20260507234513 | 24 | 205 | 4.8 | 14.5 | 0.00 | 0.08 | 0.03 | 27 | 1009.4 |
| 20260507233009 | 24 | 278 | 3.2 | 11.3 | 0.00 | 0.08 | 0.03 | 27 | 1009.4 |
| 20260507231508 | 24 | 307 | 4.8 | 11.3 | 0.00 | 0.08 | 0.03 | 27 | 1009.5 |
| 20260507230007 | 24 | 270 | 6.4 | 14.5 | 0.00 | 0.08 | 0.03 | 28 | 1009.6 |
| 20260507224513 | 24 | 300 | 8.0 | 17.7 | 0.00 | 0.08 | 0.03 | 30 | 1009.7 |
| 20260507223005 | 24 | 194 | 1.6 | 11.3 | 0.00 | 0.08 | 0.03 | 29 | 1009.8 |
| 20260507221501 | 23 | 257 | 1.6 | 8.0 | 0.00 | 0.08 | 0.03 | 35 | 1009.9 |
| 20260507220001 | 23 | 293 | 0.0 | 4.8 | 0.00 | 0.08 | 0.03 | 35 | 1010.0 |
| 20260507214610 | 23 | 63 | 4.8 | 8.0 | 0.00 | 0.08 | 0.03 | 34 | 1010.2 |
| 20260507213107 | 22 | 309 | 0.0 | 6.4 | 0.00 | 0.08 | 0.03 | 39 | 1010.4 |
| 20260507211555 | 22 | 358 | 0.0 | 4.8 | 0.00 | 0.08 | 0.03 | 40 | 1010.4 |
| 20260507210055 | 22 | 210 | 3.2 | 12.9 | 0.00 | 0.08 | 0.03 | 40 | 1010.5 |
| 20260507204601 | 22 | 109 | 1.6 | 4.8 | 0.00 | 0.08 | 0.03 | 44 | 1010.6 |
| 20260507203052 | 22 | 211 | 1.6 | 8.0 | 0.00 | 0.08 | 0.03 | 39 | 1010.8 |
| 20260507201549 | 22 | 69 | 0.0 | 4.8 | 0.00 | 0.08 | 0.03 | 42 | 1010.7 |
| 20260507200049 | 22 | 37 | 6.4 | 14.5 | 0.00 | 0.08 | 0.03 | 41 | 1010.8 |
| 20260507194547 | 21 | 238 | 1.6 | 8.0 | 0.00 | 0.08 | 0.03 | 40 | 1010.9 |
| 20260507193045 | 21 | 51 | 0.0 | 6.4 | 0.00 | 0.08 | 0.03 | 40 | 1010.9 |
| 20260507191541 | 21 | 182 | 1.6 | 6.4 | 0.00 | 0.08 | 0.03 | 46 | 1011.1 |
| 20260507190042 | 20 | 44 | 1.6 | 8.0 | 0.00 | 0.08 | 0.03 | 47 | 1011.2 |
| 20260507184539 | 20 | 269 | 1.6 | 4.8 | 0.00 | 0.08 | 0.03 | 48 | 1011.6 |
| 20260507183040 | 19 | 297 | 3.2 | 6.4 | 0.00 | 0.08 | 0.03 | 53 | 1011.7 |
| 20260507181532 | 18 | 234 | 0.0 | 6.4 | 0.00 | 0.08 | 0.03 | 58 | 1011.8 |
| 20260507180032 | 17 | 274 | 1.6 | 6.4 | 0.00 | 0.08 | 0.03 | 61 | 1011.9 |
| 20260507174530 | 17 | 283 | 1.6 | 8.0 | 0.00 | 0.08 | 0.03 | 63 | 1011.9 |
| 20260507173025 | 16 | 41 | 0.0 | 4.8 | 0.00 | 0.08 | 0.03 | 68 | 1012.0 |
| 20260507171517 | 15 | 96 | 0.0 | 1.6 | 0.00 | 0.08 | 0.03 | 72 | 1012.1 |
| 20260507170015 | 15 | 205 | 0.0 | 6.4 | 0.00 | 0.08 | 0.03 | 79 | 1012.4 |
| 20260507164517 | 13 | 252 | 0.0 | 3.2 | 0.00 | 0.08 | 0.03 | 80 | 1012.6 |
| 20260507163010 | 12 | 51 | 1.6 | 6.4 | 0.00 | 0.08 | 0.03 | 82 | 1012.7 |
| 20260507161510 | 12 | 56 | 0.0 | 3.2 | 0.00 | 0.08 | 0.03 | 87 | 1013.0 |
| 20260507160008 | 11 | 304 | 0.0 | 3.2 | 0.00 | 0.08 | 0.03 | 86 | 1013.1 |
| 20260507154507 | 11 | 55 | 0.0 | 3.2 | 0.00 | 0.08 | 0.03 | 88 | 1013.3 |
| 20260507153006 | 11 | 101 | 0.0 | 1.6 | 0.00 | 0.08 | 0.03 | 88 | 1013.4 |
| 20260507151505 | 10 | 144 | 0.0 | 1.6 | 0.00 | 0.08 | 0.03 | 89 | 1013.2 |
| 20260507150006 | 10 | 188 | 0.0 | 3.2 | 0.00 | 0.08 | 0.03 | 92 | 1013.2 |
| 20260507144501 | 10 | 124 | 0.0 | 6.4 | 0.00 | 0.08 | 0.03 | 92 | 1013.1 |
| 20260507143102 | 10 | 214 | 0.0 | 4.8 | 0.00 | 0.08 | 0.03 | 92 | 1012.9 |
| 20260507141603 | 9 | 198 | 0.0 | 4.8 | 0.00 | 0.08 | 0.03 | 91 | 1012.8 |
| 20260507140121 | 9 | 97 | 0.0 | 3.2 | 0.00 | 0.08 | 0.03 | 93 | 1012.7 |
| 20260507134557 | 8 | 120 | 0.0 | 1.6 | 0.00 | 0.08 | 0.03 | 94 | 1012.6 |
| 20260507133057 | 8 | 55 | 0.0 | 3.2 | 0.00 | 0.08 | 0.03 | 93 | 1012.7 |
| 20260507131607 | 8 | 101 | 0.0 | 1.6 | 0.00 | 0.08 | 0.03 | 94 | 1012.6 |
| 20260507130106 | 7 | 78 | 1.6 | 3.2 | 0.00 | 0.08 | 0.03 | 92 | 1012.5 |
| 20260507124604 | 8 | 86 | 0.0 | 6.4 | 0.00 | 0.08 | 0.03 | 93 | 1012.2 |
| 20260507123057 | 8 | 110 | 0.0 | 1.6 | 0.00 | 0.08 | 0.03 | 95 | 1012.1 |
| 20260507121549 | 7 | 145 | 0.0 | 1.6 | 0.00 | 0.08 | 0.03 | 95 | 1011.9 |
| 20260507120047 | 7 | 207 | 0.0 | 1.6 | 0.00 | 0.08 | 0.03 | 95 | 1011.9 |
| 20260507114548 | 7 | 222 | 0.0 | 1.6 | 0.00 | 0.08 | 0.03 | 95 | 1011.8 |
| 20260507113044 | 7 | 150 | 0.0 | 1.6 | 0.00 | 0.08 | 0.03 | 95 | 1011.6 |
| 20260507111545 | 7 | 130 | 0.0 | 1.6 | 0.00 | 0.08 | 0.03 | 93 | 1011.6 |
| 20260507110039 | 7 | 295 | 0.0 | 1.6 | 0.00 | 0.08 | 0.03 | 94 | 1011.4 |
| 20260507104539 | 7 | 45 | 0.0 | 1.6 | 0.00 | 0.08 | 0.03 | 94 | 1011.2 |
| 20260507103036 | 7 | 118 | 0.0 | 1.6 | 0.00 | 0.08 | 0.03 | 94 | 1011.0 |
| 20260507101541 | 8 | 114 | 0.0 | 1.6 | 0.00 | 0.08 | 0.03 | 94 | 1011.0 |
| 20260507100035 | 8 | 205 | 0.0 | 0.0 | 0.00 | 0.08 | 0.03 | 94 | 1011.1 |
| 20260507094530 | 8 | 214 | 0.0 | 1.6 | 0.00 | 0.08 | 0.03 | 95 | 1011.2 |
| 20260507093037 | 8 | 120 | 0.0 | 0.0 | 0.00 | 0.08 | 0.03 | 93 | 1011.2 |
| 20260507091526 | 8 | 70 | 0.0 | 0.0 | 0.00 | 0.08 | 0.03 | 94 | 1011.0 |
| 20260507090030 | 9 | 70 | 0.0 | 1.6 | 0.00 | 0.08 | 0.03 | 91 | 1010.9 |
| 20260507084519 | 10 | 65 | 0.0 | 0.0 | 0.00 | 0.08 | 0.03 | 89 | 1010.8 |
| 20260507083032 | 10 | 65 | 0.0 | 0.0 | 0.00 | 0.08 | 0.03 | 90 | 1010.9 |
| 20260507081514 | 11 | 65 | 0.0 | 1.6 | 0.00 | 0.08 | 0.03 | 90 | 1010.8 |